RZO506 LPPD-LEBL

Flight info

Callsign RZO506
Flight time N/A
Altitude 27000
Route BEKUN DCT LENSI DCT ERPES/N0418F360 DCT SOPOP DCT DIRMA/N0456F350 DCT BARDI/N0452F360 M191 DIPOL N870 PONEN/N0457F300 T600 CASPE
Aircraft A21N/M-SDE2E3FGHIRWXY/LB1

Departure

Time 2026-04-28 19:47
Airport João Paulo II Airport (LPPD)

Arrival

Time N/A
Airport Josep Tarradellas Barcelona-El Prat Airport (LEBL)
Time Latitude Longitude Altitude Speed Heading
2026-04-28 19:35 37.74879 -25.71115 272 ft 0 kts 22°
2026-04-28 19:37 37.74878 -25.71115 271 ft 0 kts 22°
2026-04-28 19:40 37.74860 -25.71125 271 ft 3 kts 25°
2026-04-28 19:41 37.74840 -25.71140 271 ft 3 kts 45°
2026-04-28 19:41 37.74827 -25.71163 274 ft 3 kts 77°
2026-04-28 19:41 37.74827 -25.71187 278 ft 1 kts 111°
2026-04-28 19:41 37.74828 -25.71192 275 ft 2 kts 111°
2026-04-28 19:43 37.74824 -25.71179 278 ft 7 kts 111°
2026-04-28 19:44 37.74798 -25.71097 271 ft 10 kts 112°
2026-04-28 19:44 37.74775 -25.71043 271 ft 6 kts 133°
2026-04-28 19:44 37.74743 -25.71025 271 ft 5 kts 173°
2026-04-28 19:44 37.74714 -25.71023 271 ft 4 kts 178°
2026-04-28 19:45 37.74691 -25.71023 271 ft 4 kts 180°
2026-04-28 19:45 37.74619 -25.71016 272 ft 15 kts 161°
2026-04-28 19:45 37.74570 -25.70940 271 ft 7 kts 112°
2026-04-28 19:45 37.74568 -25.70934 271 ft 0 kts 112°
2026-04-28 19:46 37.74566 -25.70926 270 ft 6 kts 112°
2026-04-28 19:46 37.74452 -25.70582 261 ft 85 kts 112°
2026-04-28 19:46 37.74137 -25.69564 227 ft 156 kts 113°
2026-04-28 19:46 37.73478 -25.68299 677 ft 177 kts 131°
2026-04-28 19:47 37.72789 -25.66997 1554 ft 174 kts 123°
2026-04-28 19:47 37.72264 -25.65623 1874 ft 177 kts 121°
2026-04-28 19:47 37.71802 -25.64124 1993 ft 192 kts 109°
2026-04-28 19:47 37.71891 -25.62340 2087 ft 217 kts 83°
2026-04-28 19:48 37.72175 -25.60405 2227 ft 232 kts 86°
2026-04-28 19:48 37.72383 -25.58308 2365 ft 249 kts 88°
2026-04-28 19:48 37.72584 -25.56064 2541 ft 264 kts 88°
2026-04-28 19:48 37.72799 -25.53738 2954 ft 269 kts 88°
2026-04-28 19:49 37.73028 -25.51385 3415 ft 272 kts 87°
2026-04-28 19:49 37.73267 -25.48996 3886 ft 276 kts 87°
2026-04-28 19:49 37.73514 -25.46592 4401 ft 277 kts 87°
2026-04-28 19:49 37.73767 -25.44173 4900 ft 278 kts 86°
2026-04-28 19:50 37.74286 -25.39289 5809 ft 283 kts 86°
2026-04-28 19:50 37.74545 -25.36811 6217 ft 286 kts 87°
2026-04-28 19:50 37.74803 -25.34313 6621 ft 288 kts 87°
2026-04-28 19:51 37.75061 -25.31802 6990 ft 289 kts 87°
2026-04-28 19:51 37.75320 -25.29282 7352 ft 290 kts 86°
2026-04-28 19:51 37.75584 -25.26751 7698 ft 291 kts 86°
2026-04-28 19:51 37.75849 -25.24209 8089 ft 292 kts 87°
2026-04-28 19:52 37.76116 -25.21662 8445 ft 294 kts 86°
2026-04-28 19:52 37.76383 -25.19094 8816 ft 295 kts 86°
2026-04-28 19:52 37.76648 -25.16528 9186 ft 296 kts 86°
2026-04-28 19:52 37.76914 -25.13943 9534 ft 297 kts 87°
2026-04-28 19:53 37.77179 -25.11346 9882 ft 299 kts 86°
2026-04-28 19:53 37.77444 -25.08732 10135 ft 302 kts 87°
2026-04-28 19:53 37.77711 -25.06066 10256 ft 310 kts 87°
2026-04-28 19:53 37.77984 -25.03338 10376 ft 316 kts 86°
2026-04-28 19:54 37.78265 -25.00553 10500 ft 322 kts 86°
2026-04-28 19:54 37.78552 -24.97723 10621 ft 327 kts 85°
2026-04-28 19:54 37.78842 -24.94849 10742 ft 332 kts 85°
2026-04-28 19:54 37.79136 -24.91939 10863 ft 336 kts 85°
2026-04-28 19:55 37.79433 -24.89000 11009 ft 338 kts 85°
2026-04-28 19:55 37.79732 -24.86041 11189 ft 340 kts 85°
2026-04-28 19:55 37.80028 -24.83079 11382 ft 340 kts 86°
2026-04-28 19:55 37.80323 -24.80106 11572 ft 341 kts 86°
2026-04-28 19:56 37.80617 -24.77128 11758 ft 342 kts 86°
2026-04-28 19:56 37.80913 -24.74141 11941 ft 343 kts 86°
2026-04-28 19:56 37.81210 -24.71149 12121 ft 344 kts 86°
2026-04-28 19:56 37.81508 -24.68146 12296 ft 344 kts 85°
2026-04-28 19:57 37.81805 -24.65148 12468 ft 345 kts 86°
2026-04-28 19:57 37.82100 -24.62135 12635 ft 345 kts 85°
2026-04-28 19:57 37.82395 -24.59117 12805 ft 346 kts 85°
2026-04-28 19:57 37.82690 -24.56092 12969 ft 347 kts 86°
2026-04-28 19:58 37.82983 -24.53060 13134 ft 347 kts 86°
2026-04-28 19:58 37.83277 -24.50022 13289 ft 348 kts 86°
2026-04-28 19:58 37.83572 -24.46981 13449 ft 349 kts 86°
2026-04-28 19:58 37.83866 -24.43926 13586 ft 350 kts 86°
2026-04-28 19:59 37.84159 -24.40863 13730 ft 351 kts 86°
2026-04-28 19:59 37.84452 -24.37793 13865 ft 352 kts 85°
2026-04-28 19:59 37.84746 -24.34722 14023 ft 352 kts 85°
2026-04-28 19:59 37.85041 -24.31648 14137 ft 352 kts 85°
2026-04-28 20:00 37.85335 -24.28568 14255 ft 353 kts 85°
2026-04-28 20:00 37.85627 -24.25481 14378 ft 354 kts 85°
2026-04-28 20:00 37.85920 -24.22390 14495 ft 354 kts 85°
2026-04-28 20:00 37.86213 -24.19292 14617 ft 355 kts 85°
2026-04-28 20:01 37.86504 -24.16192 14731 ft 355 kts 85°
2026-04-28 20:01 37.86796 -24.13086 14852 ft 355 kts 85°
2026-04-28 20:01 37.87089 -24.09935 14973 ft 356 kts 85°
2026-04-28 20:01 37.87373 -24.06869 15084 ft 356 kts 85°
2026-04-28 20:02 37.87663 -24.03757 15207 ft 356 kts 85°
2026-04-28 20:02 37.87954 -24.00641 15323 ft 356 kts 85°
2026-04-28 20:02 37.88243 -23.97529 15457 ft 356 kts 85°
2026-04-28 20:02 37.88528 -23.94412 15581 ft 356 kts 85°
2026-04-28 20:03 37.88816 -23.91298 15699 ft 357 kts 85°
2026-04-28 20:03 37.89103 -23.88179 15822 ft 357 kts 85°
2026-04-28 20:03 37.89384 -23.85060 15947 ft 357 kts 85°
2026-04-28 20:03 37.89664 -23.81940 16071 ft 357 kts 85°
2026-04-28 20:04 37.89945 -23.78820 16195 ft 357 kts 85°
2026-04-28 20:04 37.90229 -23.75695 16322 ft 357 kts 85°
2026-04-28 20:04 37.90514 -23.72574 16442 ft 357 kts 85°
2026-04-28 20:04 37.90798 -23.69450 16567 ft 357 kts 85°
2026-04-28 20:05 37.91081 -23.66325 16693 ft 357 kts 85°
2026-04-28 20:05 37.91361 -23.63193 16820 ft 357 kts 85°
2026-04-28 20:05 37.91637 -23.60073 16947 ft 357 kts 85°
2026-04-28 20:05 37.91914 -23.56946 17074 ft 357 kts 85°
2026-04-28 20:06 37.92191 -23.53817 17202 ft 358 kts 85°
2026-04-28 20:06 37.92467 -23.50690 17330 ft 358 kts 85°
2026-04-28 20:06 37.92743 -23.47560 17468 ft 358 kts 86°
2026-04-28 20:06 37.93017 -23.44428 17598 ft 358 kts 86°
2026-04-28 20:07 37.93292 -23.41296 17721 ft 358 kts 85°
2026-04-28 20:07 37.93479 -23.39177 17810 ft 358 kts 85°
2026-04-28 20:07 37.93843 -23.35021 17987 ft 359 kts 85°
2026-04-28 20:07 37.94112 -23.31872 18119 ft 359 kts 85°
2026-04-28 20:08 37.94380 -23.28721 18252 ft 360 kts 85°
2026-04-28 20:08 37.94678 -23.25575 18379 ft 361 kts 82°
2026-04-28 20:08 37.95268 -23.22481 18499 ft 362 kts 73°
2026-04-28 20:08 37.96199 -23.19512 18614 ft 363 kts 67°
2026-04-28 20:09 37.97221 -23.16585 18729 ft 363 kts 67°
2026-04-28 20:09 37.98232 -23.13650 18845 ft 364 kts 67°
2026-04-28 20:09 37.99236 -23.10708 18961 ft 364 kts 68°
2026-04-28 20:09 38.00236 -23.07765 19077 ft 363 kts 67°
2026-04-28 20:10 38.01234 -23.04819 19197 ft 363 kts 66°
2026-04-28 20:10 38.02232 -23.01881 19306 ft 363 kts 66°
2026-04-28 20:10 38.03233 -22.98944 19437 ft 363 kts 66°
2026-04-28 20:10 38.04233 -22.96006 19550 ft 363 kts 66°
2026-04-28 20:11 38.05232 -22.93066 19663 ft 363 kts 66°
2026-04-28 20:11 38.06229 -22.90128 19793 ft 362 kts 66°
2026-04-28 20:11 38.07226 -22.87193 19905 ft 362 kts 66°
2026-04-28 20:11 38.07913 -22.85168 19987 ft 362 kts 66°
2026-04-28 20:12 38.08908 -22.82230 20115 ft 362 kts 66°
2026-04-28 20:12 38.09903 -22.79295 20237 ft 362 kts 66°
2026-04-28 20:12 38.10913 -22.76323 20357 ft 362 kts 66°
2026-04-28 20:12 38.11907 -22.73389 20479 ft 362 kts 66°
2026-04-28 20:13 38.12898 -22.70457 20605 ft 361 kts 66°
2026-04-28 20:13 38.13888 -22.67525 20728 ft 361 kts 66°
2026-04-28 20:13 38.14877 -22.64593 20854 ft 361 kts 66°
2026-04-28 20:13 38.15865 -22.61661 20978 ft 361 kts 66°
2026-04-28 20:14 38.16849 -22.58729 21103 ft 361 kts 66°
2026-04-28 20:14 38.17831 -22.55801 21237 ft 361 kts 66°
2026-04-28 20:14 38.18817 -22.52867 21353 ft 360 kts 66°
2026-04-28 20:14 38.19801 -22.49938 21482 ft 360 kts 66°
2026-04-28 20:15 38.20796 -22.46966 21613 ft 360 kts 66°
2026-04-28 20:15 38.21778 -22.44037 21729 ft 360 kts 66°
2026-04-28 20:15 38.22759 -22.41110 21869 ft 360 kts 66°
2026-04-28 20:15 38.23741 -22.38184 21995 ft 359 kts 66°
2026-04-28 20:16 38.24703 -22.35310 22114 ft 359 kts 66°
2026-04-28 20:16 38.25689 -22.32350 22255 ft 359 kts 66°
2026-04-28 20:16 38.26661 -22.29425 22376 ft 358 kts 66°
2026-04-28 20:16 38.27631 -22.26504 22516 ft 358 kts 66°
2026-04-28 20:17 38.28611 -22.23548 22649 ft 358 kts 66°
2026-04-28 20:17 38.29577 -22.20633 22781 ft 357 kts 66°
2026-04-28 20:17 38.30541 -22.17720 22920 ft 357 kts 66°
2026-04-28 20:17 38.31505 -22.14809 23053 ft 356 kts 66°
2026-04-28 20:18 38.32467 -22.11900 23183 ft 356 kts 66°
2026-04-28 20:18 38.33114 -22.09938 23276 ft 356 kts 66°
2026-04-28 20:18 38.34396 -22.06055 23468 ft 355 kts 66°
2026-04-28 20:18 38.35355 -22.03162 23597 ft 354 kts 66°
2026-04-28 20:19 38.36309 -22.00271 23729 ft 354 kts 66°
2026-04-28 20:19 38.37259 -21.97382 23835 ft 353 kts 66°
2026-04-28 20:19 38.38218 -21.94460 23952 ft 352 kts 66°
2026-04-28 20:19 38.39164 -21.91580 24065 ft 352 kts 66°
2026-04-28 20:20 38.40107 -21.88706 24176 ft 351 kts 66°
2026-04-28 20:20 38.41058 -21.85799 24295 ft 350 kts 66°
2026-04-28 20:20 38.41993 -21.82937 24408 ft 349 kts 66°
2026-04-28 20:20 38.42928 -21.80081 24527 ft 349 kts 66°
2026-04-28 20:21 38.43873 -21.77195 24644 ft 348 kts 66°
2026-04-28 20:21 38.44803 -21.74352 24755 ft 347 kts 66°
2026-04-28 20:21 38.45742 -21.71481 24878 ft 346 kts 66°
2026-04-28 20:21 38.46680 -21.68620 24996 ft 344 kts 66°
2026-04-28 20:22 38.47604 -21.65805 25119 ft 343 kts 66°
2026-04-28 20:22 38.48517 -21.62999 25228 ft 342 kts 66°
2026-04-28 20:22 38.49426 -21.60197 25353 ft 341 kts 66°
2026-04-28 20:22 38.50329 -21.57406 25471 ft 340 kts 66°
2026-04-28 20:23 38.51230 -21.54623 25591 ft 338 kts 66°
2026-04-28 20:23 38.52126 -21.51850 25716 ft 337 kts 66°
2026-04-28 20:23 38.53017 -21.49089 25834 ft 335 kts 66°
2026-04-28 20:23 38.53903 -21.46344 25955 ft 334 kts 66°
2026-04-28 20:24 38.54785 -21.43615 26077 ft 332 kts 66°
2026-04-28 20:24 38.55666 -21.40888 26200 ft 330 kts 66°
2026-04-28 20:24 38.56538 -21.38187 26323 ft 328 kts 66°
2026-04-28 20:24 38.57407 -21.35495 26451 ft 326 kts 65°
2026-04-28 20:25 38.58272 -21.32820 26568 ft 324 kts 65°
2026-04-28 20:25 38.59126 -21.30166 26692 ft 322 kts 65°
2026-04-28 20:25 38.59961 -21.27563 26815 ft 319 kts 65°
2026-04-28 20:25 38.60803 -21.24942 26896 ft 319 kts 65°
2026-04-28 20:26 38.61658 -21.22278 26894 ft 321 kts 65°
2026-04-28 20:26 38.62511 -21.19628 26896 ft 323 kts 65°
2026-04-28 20:26 38.63362 -21.16981 26960 ft 321 kts 65°
2026-04-28 20:26 38.64212 -21.14343 27066 ft 320 kts 65°
2026-04-28 20:27 38.65064 -21.11701 27022 ft 323 kts 65°
2026-04-28 20:27 38.65925 -21.09055 27128 ft 321 kts 65°
2026-04-28 20:27 38.66783 -21.06430 27193 ft 321 kts 65°
2026-04-28 20:27 38.67632 -21.03755 27090 ft 326 kts 66°
2026-04-28 20:28 38.68448 -21.01057 27223 ft 322 kts 67°
2026-04-28 20:28 38.69215 -20.98387 27373 ft 320 kts 68°
2026-04-28 20:28 38.70032 -20.95711 27243 ft 325 kts 64°
2026-04-28 20:28 38.70907 -20.92986 26982 ft 337 kts 66°
2026-04-28 20:29 38.71768 -20.90166 26877 ft 341 kts 65°
2026-04-28 20:29 38.72680 -20.87350 26862 ft 343 kts 65°
2026-04-28 20:29 38.73612 -20.84532 26866 ft 345 kts 65°
2026-04-28 20:29 38.74545 -20.81695 26865 ft 346 kts 65°
2026-04-28 20:30 38.75472 -20.78841 26873 ft 348 kts 65°
2026-04-28 20:30 38.76391 -20.75960 26869 ft 350 kts 65°
2026-04-28 20:30 38.77303 -20.73072 26956 ft 347 kts 65°
2026-04-28 20:30 38.78200 -20.70212 27082 ft 345 kts 65°
2026-04-28 20:31 38.79093 -20.67354 27105 ft 346 kts 65°
2026-04-28 20:31 38.79992 -20.64480 27105 ft 348 kts 65°
2026-04-28 20:31 38.80894 -20.61597 27104 ft 349 kts 65°
2026-04-28 20:31 38.81800 -20.58703 27104 ft 350 kts 65°
2026-04-28 20:32 38.82711 -20.55801 27097 ft 352 kts 65°
2026-04-28 20:32 38.83634 -20.52856 27102 ft 362 kts 65°
2026-04-28 20:32 38.84589 -20.49811 27099 ft 374 kts 65°
2026-04-28 20:32 38.85573 -20.46667 27116 ft 386 kts 65°
2026-04-28 20:33 38.86588 -20.43425 27096 ft 397 kts 65°
2026-04-28 20:33 38.87631 -20.40091 27095 ft 408 kts 65°
2026-04-28 20:33 38.88700 -20.36668 27095 ft 419 kts 65°
2026-04-28 20:33 38.89795 -20.33151 27108 ft 429 kts 65°
2026-04-28 20:34 38.90910 -20.29548 27103 ft 439 kts 66°
2026-04-28 20:34 38.92052 -20.25859 27110 ft 449 kts 66°
2026-04-28 20:34 38.93217 -20.22092 27111 ft 459 kts 66°
2026-04-28 20:34 38.94403 -20.18247 27095 ft 468 kts 66°
2026-04-28 20:35 38.95608 -20.14326 27094 ft 476 kts 66°
2026-04-28 20:35 38.96837 -20.10336 27096 ft 484 kts 66°
2026-04-28 20:35 38.98081 -20.06287 27097 ft 489 kts 66°
2026-04-28 20:35 38.99331 -20.02212 27097 ft 491 kts 66°
2026-04-28 20:36 39.00117 -19.99485 27092 ft 492 kts 70°
2026-04-28 20:36 39.01073 -19.95259 27097 ft 493 kts 71°
2026-04-28 20:36 39.02020 -19.91016 27095 ft 493 kts 71°
2026-04-28 20:36 39.02968 -19.86775 27095 ft 493 kts 71°
2026-04-28 20:37 39.03915 -19.82532 27097 ft 493 kts 71°
2026-04-28 20:37 39.04859 -19.78290 27110 ft 494 kts 71°
2026-04-28 20:37 39.05803 -19.74045 27103 ft 494 kts 71°
2026-04-28 20:37 39.06745 -19.69801 27100 ft 494 kts 71°
2026-04-28 20:38 39.07686 -19.65550 27092 ft 494 kts 71°
2026-04-28 20:38 39.08622 -19.61306 27090 ft 493 kts 71°
2026-04-28 20:38 39.09555 -19.57052 27088 ft 493 kts 72°
2026-04-28 20:38 39.10487 -19.52802 27087 ft 493 kts 72°
2026-04-28 20:39 39.11417 -19.48561 27081 ft 488 kts 72°
2026-04-28 20:39 39.12319 -19.44437 27096 ft 468 kts 71°
2026-04-28 20:39 39.13183 -19.40484 27093 ft 450 kts 71°
2026-04-28 20:39 39.14015 -19.36679 27090 ft 433 kts 71°
2026-04-28 20:40 39.14815 -19.33020 27090 ft 416 kts 71°
2026-04-28 20:40 39.15579 -19.29503 27090 ft 400 kts 71°
2026-04-28 20:40 39.16309 -19.26122 27089 ft 384 kts 71°
2026-04-28 20:40 39.17005 -19.22874 27085 ft 368 kts 71°
2026-04-28 20:41 39.17676 -19.19759 27084 ft 353 kts 70°
2026-04-28 20:41 39.18322 -19.16779 27083 ft 337 kts 70°
2026-04-28 20:41 39.18938 -19.13936 27082 ft 321 kts 70°
2026-04-28 20:41 39.19524 -19.11233 27002 ft 308 kts 69°
2026-04-28 20:42 39.20108 -19.08579 26514 ft 310 kts 69°
2026-04-28 20:42 39.20717 -19.05879 25877 ft 317 kts 68°
2026-04-28 20:42 39.21315 -19.03172 25618 ft 309 kts 70°
2026-04-28 20:42 39.21823 -19.00548 25568 ft 297 kts 72°
2026-04-28 20:43 39.22281 -18.97860 25278 ft 320 kts 73°
2026-04-28 20:43 39.22772 -18.94950 25042 ft 341 kts 71°
2026-04-28 20:43 39.23423 -18.91950 25043 ft 354 kts 69°
2026-04-28 20:43 39.24171 -18.88859 25042 ft 369 kts 68°
2026-04-28 20:44 39.24955 -18.85654 25045 ft 383 kts 69°
2026-04-28 20:44 39.25738 -18.82320 25140 ft 393 kts 70°
2026-04-28 20:44 39.26494 -18.78939 25240 ft 386 kts 70°
2026-04-28 20:44 39.27185 -18.75686 25341 ft 366 kts 71°
2026-04-28 20:45 39.27823 -18.72589 25447 ft 347 kts 71°
2026-04-28 20:45 39.28419 -18.69661 25551 ft 327 kts 70°
2026-04-28 20:45 39.28986 -18.66899 25656 ft 313 kts 70°
2026-04-28 20:45 39.29564 -18.64155 25781 ft 321 kts 70°
2026-04-28 20:46 39.30166 -18.61340 25910 ft 330 kts 70°
2026-04-28 20:46 39.30783 -18.58453 26039 ft 338 kts 70°
2026-04-28 20:46 39.31415 -18.55485 26166 ft 347 kts 70°
2026-04-28 20:46 39.32063 -18.52440 26290 ft 356 kts 70°
2026-04-28 20:47 39.32718 -18.49326 26416 ft 363 kts 70°
2026-04-28 20:47 39.33384 -18.46145 26544 ft 372 kts 70°
2026-04-28 20:47 39.34066 -18.42880 26686 ft 380 kts 70°
2026-04-28 20:47 39.34761 -18.39546 26814 ft 389 kts 70°
2026-04-28 20:48 39.35469 -18.36136 26964 ft 396 kts 70°
2026-04-28 20:48 39.36190 -18.32665 27071 ft 405 kts 70°
2026-04-28 20:48 39.36930 -18.29104 27078 ft 416 kts 70°
2026-04-28 20:48 39.37692 -18.25449 27077 ft 427 kts 70°
2026-04-28 20:49 39.38474 -18.21701 27077 ft 437 kts 71°
2026-04-28 20:49 39.39271 -18.17864 27074 ft 447 kts 71°
2026-04-28 20:49 39.40084 -18.13934 27071 ft 457 kts 71°
2026-04-28 20:49 39.40911 -18.09925 27071 ft 466 kts 71°
2026-04-28 20:50 39.41752 -18.05833 27073 ft 476 kts 71°
2026-04-28 20:50 39.42604 -18.01656 27068 ft 485 kts 71°
2026-04-28 20:50 39.43469 -17.97410 27068 ft 493 kts 71°
2026-04-28 20:50 39.44348 -17.93089 27069 ft 499 kts 71°
2026-04-28 20:51 39.45236 -17.88721 27068 ft 505 kts 71°
2026-04-28 20:51 39.46131 -17.84310 27062 ft 509 kts 71°
2026-04-28 20:51 39.47034 -17.79863 27063 ft 512 kts 71°
2026-04-28 20:51 39.47633 -17.76907 27063 ft 514 kts 71°
2026-04-28 20:52 39.48847 -17.70900 27054 ft 512 kts 71°
2026-04-28 20:52 39.49735 -17.66480 27064 ft 504 kts 71°
2026-04-28 20:52 39.50615 -17.62096 27058 ft 502 kts 70°
2026-04-28 20:52 39.51494 -17.57723 27059 ft 501 kts 71°
2026-04-28 20:53 39.53241 -17.48982 27048 ft 501 kts 71°
2026-04-28 20:53 39.54111 -17.44615 27050 ft 501 kts 71°
2026-04-28 20:53 39.54985 -17.40244 27048 ft 501 kts 71°
2026-04-28 20:54 39.55860 -17.35864 27050 ft 503 kts 70°
2026-04-28 20:54 39.56734 -17.31473 27041 ft 503 kts 70°
2026-04-28 20:54 39.57604 -17.27081 27037 ft 503 kts 70°
2026-04-28 20:54 39.58482 -17.22628 27037 ft 504 kts 70°
2026-04-28 20:55 39.59350 -17.18224 27029 ft 504 kts 70°
2026-04-28 20:55 39.60217 -17.13828 27029 ft 504 kts 70°
2026-04-28 20:55 39.61080 -17.09429 27028 ft 504 kts 70°
2026-04-28 20:55 39.61950 -17.04959 27028 ft 504 kts 70°
2026-04-28 20:56 39.62807 -17.00550 27043 ft 504 kts 70°
2026-04-28 20:56 39.63665 -16.96139 27031 ft 505 kts 70°
2026-04-28 20:56 39.64527 -16.91724 27024 ft 505 kts 70°
2026-04-28 20:56 39.65388 -16.87306 27016 ft 505 kts 70°
2026-04-28 20:57 39.66246 -16.82883 27014 ft 505 kts 70°
2026-04-28 20:57 39.67099 -16.78475 27014 ft 506 kts 70°
2026-04-28 20:57 39.67966 -16.73974 27008 ft 506 kts 70°
2026-04-28 20:57 39.68817 -16.69541 27058 ft 506 kts 70°
2026-04-28 20:58 39.69666 -16.65105 27046 ft 507 kts 69°
2026-04-28 20:58 39.70515 -16.60662 27032 ft 507 kts 69°
2026-04-28 20:58 39.71363 -16.56223 27031 ft 507 kts 69°
2026-04-28 20:58 39.72209 -16.51783 27030 ft 506 kts 69°
2026-04-28 20:59 39.73053 -16.47346 27025 ft 506 kts 69°
2026-04-28 20:59 39.73895 -16.42907 27019 ft 506 kts 69°
2026-04-28 20:59 39.74733 -16.38467 27019 ft 506 kts 69°
2026-04-28 20:59 39.75572 -16.34032 27063 ft 505 kts 69°
2026-04-28 21:00 39.76420 -16.29542 27038 ft 504 kts 70°
2026-04-28 21:00 39.77242 -16.25173 27034 ft 504 kts 70°
2026-04-28 21:00 39.78074 -16.20752 27031 ft 503 kts 70°
2026-04-28 21:00 39.78904 -16.16334 27022 ft 503 kts 70°
2026-04-28 21:01 39.79732 -16.11913 27018 ft 503 kts 70°
2026-04-28 21:01 39.80554 -16.07494 27016 ft 503 kts 70°
2026-04-28 21:01 39.81373 -16.03072 27007 ft 503 kts 70°
2026-04-28 21:01 39.82188 -15.98654 27058 ft 502 kts 70°
2026-04-28 21:02 39.83003 -15.94242 27022 ft 501 kts 71°
2026-04-28 21:02 39.83817 -15.89843 27012 ft 500 kts 71°
2026-04-28 21:02 39.84628 -15.85450 27014 ft 499 kts 71°
2026-04-28 21:02 39.85437 -15.81058 27005 ft 499 kts 71°
2026-04-28 21:03 39.86244 -15.76670 26992 ft 499 kts 71°
2026-04-28 21:03 39.87048 -15.72279 27002 ft 499 kts 71°
2026-04-28 21:03 39.87850 -15.67885 27000 ft 498 kts 71°
2026-04-28 21:03 39.88650 -15.63497 27016 ft 498 kts 72°
2026-04-28 21:04 39.89443 -15.59113 27016 ft 497 kts 72°
2026-04-28 21:04 39.90234 -15.54729 27006 ft 496 kts 72°
2026-04-28 21:04 39.91022 -15.50358 27005 ft 496 kts 72°
2026-04-28 21:04 39.91811 -15.45988 27002 ft 495 kts 72°
2026-04-28 21:05 39.92602 -15.41623 27000 ft 495 kts 72°
2026-04-28 21:05 39.93392 -15.37262 26996 ft 494 kts 72°
2026-04-28 21:05 39.94178 -15.32903 26987 ft 494 kts 72°
2026-04-28 21:05 39.94960 -15.28543 26983 ft 494 kts 72°
2026-04-28 21:06 39.95736 -15.24186 26978 ft 494 kts 72°
2026-04-28 21:06 39.96510 -15.19826 26970 ft 494 kts 72°
2026-04-28 21:06 39.97283 -15.15466 26967 ft 494 kts 72°
2026-04-28 21:06 39.98052 -15.11104 26965 ft 494 kts 72°
2026-04-28 21:07 39.98829 -15.06683 26965 ft 493 kts 72°
2026-04-28 21:07 39.99336 -15.03794 26964 ft 493 kts 72°
2026-04-28 21:07 40.00204 -14.97971 26961 ft 497 kts 79°
2026-04-28 21:07 40.00617 -14.93432 26985 ft 497 kts 79°
2026-04-28 21:08 40.01002 -14.88957 26995 ft 496 kts 81°
2026-04-28 21:08 40.01371 -14.84495 26999 ft 494 kts 81°
2026-04-28 21:08 40.01731 -14.80044 26998 ft 493 kts 81°
2026-04-28 21:08 40.02088 -14.75605 26991 ft 492 kts 81°
2026-04-28 21:09 40.02450 -14.71172 26988 ft 491 kts 81°
2026-04-28 21:09 40.02690 -14.68242 26986 ft 491 kts 81°
2026-04-28 21:09 40.03172 -14.62323 26976 ft 490 kts 81°
2026-04-28 21:09 40.03532 -14.57913 26972 ft 489 kts 81°
2026-04-28 21:10 40.03893 -14.53500 26999 ft 489 kts 82°
2026-04-28 21:10 40.04131 -14.50584 26995 ft 488 kts 82°
2026-04-28 21:10 40.04490 -14.46178 26984 ft 487 kts 82°
2026-04-28 21:10 40.04844 -14.41789 26980 ft 486 kts 82°
2026-04-28 21:11 40.05193 -14.37398 26976 ft 486 kts 82°
2026-04-28 21:11 40.05539 -14.33018 26963 ft 485 kts 82°
2026-04-28 21:11 40.05887 -14.28635 26959 ft 485 kts 82°
2026-04-28 21:11 40.06232 -14.24257 26954 ft 485 kts 82°
2026-04-28 21:12 40.06575 -14.19883 26965 ft 484 kts 82°
2026-04-28 21:12 40.06915 -14.15513 26968 ft 483 kts 82°
2026-04-28 21:12 40.07252 -14.11158 26969 ft 482 kts 82°
2026-04-28 21:12 40.07590 -14.06807 26962 ft 481 kts 83°
2026-04-28 21:13 40.07926 -14.02467 26962 ft 480 kts 82°
2026-04-28 21:13 40.08259 -13.98128 26959 ft 480 kts 83°
2026-04-28 21:13 40.08590 -13.93797 26956 ft 479 kts 82°
2026-04-28 21:13 40.08917 -13.89465 26948 ft 479 kts 83°
2026-04-28 21:14 40.09240 -13.85132 26950 ft 479 kts 83°
2026-04-28 21:14 40.09563 -13.80820 26965 ft 476 kts 83°
2026-04-28 21:14 40.09883 -13.76523 26962 ft 475 kts 84°
2026-04-28 21:14 40.10201 -13.72234 26963 ft 473 kts 84°
2026-04-28 21:15 40.10518 -13.67961 26961 ft 472 kts 84°
2026-04-28 21:15 40.10836 -13.63695 26951 ft 471 kts 83°
2026-04-28 21:15 40.11149 -13.59438 26948 ft 471 kts 84°
2026-04-28 21:15 40.11457 -13.55181 26949 ft 470 kts 83°
2026-04-28 21:16 40.11758 -13.50927 26939 ft 471 kts 84°
2026-04-28 21:16 40.12059 -13.46668 26920 ft 471 kts 84°
2026-04-28 21:16 40.12363 -13.42413 26924 ft 471 kts 84°
2026-04-28 21:16 40.12667 -13.38155 26912 ft 471 kts 84°
2026-04-28 21:17 40.12969 -13.33890 26900 ft 471 kts 84°
2026-04-28 21:17 40.13273 -13.29620 26894 ft 472 kts 84°
2026-04-28 21:17 40.13574 -13.25354 26894 ft 472 kts 84°
2026-04-28 21:17 40.13875 -13.21081 26898 ft 472 kts 84°
2026-04-28 21:18 40.14174 -13.16810 26895 ft 472 kts 84°
2026-04-28 21:18 40.14470 -13.12531 26885 ft 472 kts 85°
2026-04-28 21:18 40.14766 -13.08260 26894 ft 472 kts 86°
2026-04-28 21:18 40.15057 -13.03996 26910 ft 471 kts 86°
2026-04-28 21:19 40.15347 -12.99733 26909 ft 471 kts 86°
2026-04-28 21:19 40.15634 -12.95476 26913 ft 470 kts 86°
2026-04-28 21:19 40.15916 -12.91223 26907 ft 470 kts 86°
2026-04-28 21:19 40.16198 -12.86974 26906 ft 469 kts 86°
2026-04-28 21:20 40.16481 -12.82721 26906 ft 469 kts 86°
2026-04-28 21:20 40.16764 -12.78473 26903 ft 469 kts 86°
2026-04-28 21:20 40.17046 -12.74225 26888 ft 469 kts 86°
2026-04-28 21:20 40.17322 -12.69979 26890 ft 468 kts 86°
2026-04-28 21:21 40.17596 -12.65739 26892 ft 468 kts 86°
2026-04-28 21:21 40.17870 -12.61501 26889 ft 468 kts 86°
2026-04-28 21:21 40.18146 -12.57261 26889 ft 468 kts 86°
2026-04-28 21:21 40.18419 -12.53019 26889 ft 468 kts 86°
2026-04-28 21:22 40.18678 -12.48836 26888 ft 468 kts 86°
2026-04-28 21:22 40.18942 -12.44538 26888 ft 468 kts 86°
2026-04-28 21:22 40.19204 -12.40304 26871 ft 468 kts 87°
2026-04-28 21:22 40.19467 -12.36064 26876 ft 467 kts 87°
2026-04-28 21:23 40.19728 -12.31832 26874 ft 467 kts 87°
2026-04-28 21:23 40.19991 -12.27602 26878 ft 467 kts 87°
2026-04-28 21:23 40.20253 -12.23372 26880 ft 466 kts 87°
2026-04-28 21:23 40.20513 -12.19148 26881 ft 466 kts 87°
2026-04-28 21:24 40.20772 -12.14919 26885 ft 466 kts 87°
2026-04-28 21:24 40.21029 -12.10695 26884 ft 466 kts 87°
2026-04-28 21:24 40.21281 -12.06468 26883 ft 466 kts 87°
2026-04-28 21:24 40.21531 -12.02245 26862 ft 466 kts 88°
2026-04-28 21:25 40.21776 -11.98023 26866 ft 466 kts 88°
2026-04-28 21:25 40.22020 -11.93795 26869 ft 466 kts 88°
2026-04-28 21:25 40.22264 -11.89568 26871 ft 466 kts 88°
2026-04-28 21:25 40.22508 -11.85344 26873 ft 466 kts 88°
2026-04-28 21:26 40.22753 -11.81116 26873 ft 466 kts 88°
2026-04-28 21:26 40.23000 -11.76889 26873 ft 466 kts 88°
2026-04-28 21:26 40.23244 -11.72664 26874 ft 466 kts 88°
2026-04-28 21:26 40.23483 -11.68436 26874 ft 466 kts 88°
2026-04-28 21:27 40.23719 -11.64207 26874 ft 466 kts 88°
2026-04-28 21:27 40.23955 -11.59983 26871 ft 466 kts 88°
2026-04-28 21:27 40.24188 -11.55753 26871 ft 466 kts 88°
2026-04-28 21:27 40.24420 -11.51525 26871 ft 466 kts 88°
2026-04-28 21:28 40.24652 -11.47298 26871 ft 466 kts 88°
2026-04-28 21:28 40.24885 -11.43066 26871 ft 466 kts 88°
2026-04-28 21:28 40.25113 -11.38840 26871 ft 466 kts 88°
2026-04-28 21:28 40.25337 -11.34611 26871 ft 466 kts 88°
2026-04-28 21:29 40.25560 -11.30383 26839 ft 466 kts 89°
2026-04-28 21:29 40.25785 -11.26153 26846 ft 466 kts 89°
2026-04-28 21:29 40.26007 -11.21925 26852 ft 466 kts 89°
2026-04-28 21:29 40.26224 -11.17692 26856 ft 466 kts 89°
2026-04-28 21:30 40.26441 -11.13459 26861 ft 466 kts 89°
2026-04-28 21:30 40.26661 -11.09231 26861 ft 466 kts 89°
2026-04-28 21:30 40.26874 -11.05053 26865 ft 466 kts 89°
2026-04-28 21:30 40.27086 -11.00817 26866 ft 466 kts 89°
2026-04-28 21:31 40.27297 -10.96583 26866 ft 466 kts 89°
2026-04-28 21:31 40.27505 -10.92351 26843 ft 466 kts 89°
2026-04-28 21:31 40.27711 -10.88119 26850 ft 466 kts 89°
2026-04-28 21:31 40.27919 -10.83890 26857 ft 465 kts 89°
2026-04-28 21:32 40.28128 -10.79664 26859 ft 465 kts 89°
2026-04-28 21:32 40.28336 -10.75434 26862 ft 465 kts 89°
2026-04-28 21:32 40.28539 -10.71212 26864 ft 465 kts 89°
2026-04-28 21:32 40.28740 -10.66981 26865 ft 465 kts 90°
2026-04-28 21:33 40.28938 -10.62757 26867 ft 465 kts 90°
2026-04-28 21:33 40.29136 -10.58539 26867 ft 465 kts 90°
2026-04-28 21:33 40.29333 -10.54306 26841 ft 465 kts 90°
2026-04-28 21:33 40.29528 -10.50086 26849 ft 465 kts 90°
2026-04-28 21:34 40.29723 -10.45864 26853 ft 465 kts 90°
2026-04-28 21:34 40.29916 -10.41640 26856 ft 465 kts 90°
2026-04-28 21:34 40.30105 -10.37421 26859 ft 464 kts 90°
2026-04-28 21:34 40.30293 -10.33192 26860 ft 464 kts 90°
2026-04-28 21:35 40.30481 -10.28972 26860 ft 464 kts 90°
2026-04-28 21:35 40.30669 -10.24744 26865 ft 464 kts 90°
2026-04-28 21:35 40.30852 -10.20523 26862 ft 464 kts 90°
2026-04-28 21:35 40.31031 -10.16299 26854 ft 464 kts 91°
2026-04-28 21:36 40.31209 -10.12071 26844 ft 465 kts 91°
2026-04-28 21:36 40.31387 -10.07844 26847 ft 465 kts 90°
2026-04-28 21:36 40.31566 -10.03612 26859 ft 465 kts 90°
2026-04-28 21:36 40.31748 -9.99376 26863 ft 466 kts 90°
2026-04-28 21:37 40.31929 -9.95143 26856 ft 466 kts 91°
2026-04-28 21:37 40.32104 -9.90904 26860 ft 466 kts 91°
2026-04-28 21:37 40.32274 -9.86668 26858 ft 466 kts 91°
2026-04-28 21:37 40.32438 -9.82431 26831 ft 466 kts 91°
2026-04-28 21:38 40.32600 -9.78193 26842 ft 466 kts 91°
2026-04-28 21:38 40.32765 -9.73951 26851 ft 466 kts 91°
2026-04-28 21:38 40.32934 -9.69703 26855 ft 466 kts 91°
2026-04-28 21:38 40.33104 -9.65458 26861 ft 466 kts 91°
2026-04-28 21:39 40.33273 -9.61216 26862 ft 466 kts 91°
2026-04-28 21:39 40.33437 -9.56971 26863 ft 466 kts 91°
2026-04-28 21:39 40.33595 -9.52726 26863 ft 466 kts 91°
2026-04-28 21:39 40.33747 -9.48485 26864 ft 466 kts 91°
2026-04-28 21:40 40.33898 -9.44239 26843 ft 466 kts 90°
2026-04-28 21:40 40.34050 -9.39990 26850 ft 467 kts 90°
2026-04-28 21:40 40.34206 -9.35737 26854 ft 468 kts 90°
2026-04-28 21:40 40.34364 -9.31480 26856 ft 468 kts 90°
2026-04-28 21:41 40.34519 -9.27216 26856 ft 468 kts 90°
2026-04-28 21:41 40.34671 -9.22950 26859 ft 469 kts 90°
2026-04-28 21:41 40.34820 -9.18683 26861 ft 469 kts 90°
2026-04-28 21:41 40.34967 -9.14414 26861 ft 469 kts 90°
2026-04-28 21:42 40.35115 -9.10143 26861 ft 469 kts 90°
2026-04-28 21:42 40.35260 -9.05877 26836 ft 469 kts 90°
2026-04-28 21:42 40.35402 -9.01594 26843 ft 470 kts 90°
2026-04-28 21:42 40.35538 -8.97309 26847 ft 471 kts 90°
2026-04-28 21:43 40.35674 -8.93021 26850 ft 471 kts 90°
2026-04-28 21:43 40.35812 -8.88724 26848 ft 472 kts 90°
2026-04-28 21:43 40.35950 -8.84426 26853 ft 472 kts 90°
2026-04-28 21:43 40.36086 -8.80128 26854 ft 472 kts 90°
2026-04-28 21:44 40.36220 -8.75823 26859 ft 472 kts 90°
2026-04-28 21:44 40.36351 -8.71515 26834 ft 473 kts 91°
2026-04-28 21:44 40.36480 -8.67220 26844 ft 474 kts 90°
2026-04-28 21:44 40.36609 -8.62885 26849 ft 475 kts 90°
2026-04-28 21:45 40.36739 -8.58562 26859 ft 475 kts 90°
2026-04-28 21:45 40.36869 -8.54231 26854 ft 475 kts 90°
2026-04-28 21:45 40.36994 -8.49896 26855 ft 476 kts 90°
2026-04-28 21:45 40.37117 -8.45565 26864 ft 476 kts 90°
2026-04-28 21:46 40.37241 -8.41222 26859 ft 476 kts 90°
2026-04-28 21:46 40.37362 -8.36888 26865 ft 476 kts 90°
2026-04-28 21:46 40.37535 -8.32555 26842 ft 477 kts 88°
2026-04-28 21:46 40.37806 -8.28212 26847 ft 478 kts 87°
2026-04-28 21:47 40.38145 -8.23875 26853 ft 479 kts 86°
2026-04-28 21:47 40.38518 -8.19525 26857 ft 480 kts 85°
2026-04-28 21:47 40.38891 -8.15176 26859 ft 480 kts 86°
2026-04-28 21:47 40.39245 -8.10820 26858 ft 480 kts 86°
2026-04-28 21:48 40.39577 -8.06460 26859 ft 480 kts 86°
2026-04-28 21:48 40.39892 -8.02095 26864 ft 481 kts 87°
2026-04-28 21:48 40.40194 -7.97728 26866 ft 481 kts 87°
2026-04-28 21:48 40.40490 -7.93363 26865 ft 481 kts 87°
2026-04-28 21:49 40.40785 -7.88994 26867 ft 481 kts 87°
2026-04-28 21:49 40.41081 -7.84631 26868 ft 481 kts 87°
2026-04-28 21:49 40.41381 -7.80258 26873 ft 481 kts 87°
2026-04-28 21:49 40.41684 -7.75889 26870 ft 481 kts 87°
2026-04-28 21:50 40.41988 -7.71521 26870 ft 481 kts 87°
2026-04-28 21:50 40.42293 -7.67151 26869 ft 481 kts 87°
2026-04-28 21:50 40.42596 -7.62783 26869 ft 481 kts 87°
2026-04-28 21:50 40.42894 -7.58414 26856 ft 481 kts 87°
2026-04-28 21:51 40.43191 -7.54034 26858 ft 482 kts 87°
2026-04-28 21:51 40.43486 -7.49653 26860 ft 482 kts 87°
2026-04-28 21:51 40.43778 -7.45267 26862 ft 483 kts 87°
2026-04-28 21:51 40.44067 -7.40876 26863 ft 483 kts 87°
2026-04-28 21:52 40.44352 -7.36486 26865 ft 483 kts 87°
2026-04-28 21:52 40.44542 -7.33569 26866 ft 483 kts 87°
2026-04-28 21:52 40.44826 -7.29174 26867 ft 484 kts 87°
2026-04-28 21:52 40.45111 -7.24775 26868 ft 484 kts 87°
2026-04-28 21:53 40.45398 -7.20376 26860 ft 484 kts 87°
2026-04-28 21:53 40.45684 -7.15976 26862 ft 484 kts 87°
2026-04-28 21:53 40.45969 -7.11572 26863 ft 484 kts 87°
2026-04-28 21:53 40.46249 -7.07167 26864 ft 484 kts 87°
2026-04-28 21:54 40.46526 -7.02755 26868 ft 485 kts 87°
2026-04-28 21:54 40.46800 -6.98343 26869 ft 485 kts 87°
2026-04-28 21:54 40.47074 -6.93932 26869 ft 485 kts 87°
2026-04-28 21:54 40.47348 -6.89517 26870 ft 485 kts 87°
2026-04-28 21:55 40.47621 -6.85103 26872 ft 485 kts 87°
2026-04-28 21:55 40.47892 -6.80687 26867 ft 485 kts 87°
2026-04-28 21:55 40.48159 -6.76269 26866 ft 486 kts 87°
2026-04-28 21:55 40.48425 -6.71842 26866 ft 486 kts 87°
2026-04-28 21:56 40.48690 -6.67411 26869 ft 487 kts 87°
2026-04-28 21:56 40.48954 -6.62974 26867 ft 487 kts 87°
2026-04-28 21:56 40.49217 -6.58539 26869 ft 487 kts 87°
2026-04-28 21:56 40.49477 -6.54100 26876 ft 487 kts 88°
2026-04-28 21:57 40.49735 -6.49659 26874 ft 488 kts 88°
2026-04-28 21:57 40.49989 -6.45218 26863 ft 488 kts 88°
2026-04-28 21:57 40.50245 -6.40771 26865 ft 488 kts 88°
2026-04-28 21:57 40.50499 -6.36319 26869 ft 489 kts 88°
2026-04-28 21:58 40.50751 -6.31860 26870 ft 490 kts 88°
2026-04-28 21:58 40.51006 -6.27399 26872 ft 490 kts 88°
2026-04-28 21:58 40.51259 -6.22936 26876 ft 490 kts 88°
2026-04-28 21:58 40.51508 -6.18466 26878 ft 490 kts 88°
2026-04-28 21:59 40.51757 -6.13998 26877 ft 490 kts 88°
2026-04-28 21:59 40.52004 -6.09527 26872 ft 490 kts 88°
2026-04-28 21:59 40.52245 -6.05057 26872 ft 491 kts 88°
2026-04-28 22:00 40.52720 -5.96110 26897 ft 491 kts 88°
2026-04-28 22:00 40.52954 -5.91636 26883 ft 491 kts 88°
2026-04-28 22:00 40.53188 -5.87168 26885 ft 491 kts 88°
2026-04-28 22:00 40.53423 -5.82692 26887 ft 491 kts 87°
2026-04-28 22:01 40.53866 -5.78245 26888 ft 492 kts 81°
2026-04-28 22:01 40.54472 -5.73814 26888 ft 492 kts 81°
2026-04-28 22:01 40.55076 -5.69390 26884 ft 492 kts 81°
2026-04-28 22:01 40.55675 -5.64960 26882 ft 492 kts 81°
2026-04-28 22:02 40.56270 -5.60527 26888 ft 492 kts 81°
2026-04-28 22:02 40.56865 -5.56093 26888 ft 493 kts 81°
2026-04-28 22:02 40.57460 -5.51653 26889 ft 493 kts 81°
2026-04-28 22:02 40.58052 -5.47212 26889 ft 493 kts 81°
2026-04-28 22:03 40.58643 -5.42771 26890 ft 493 kts 81°
2026-04-28 22:03 40.59231 -5.38322 26890 ft 493 kts 81°
2026-04-28 22:03 40.59816 -5.33876 26891 ft 493 kts 81°
2026-04-28 22:03 40.60397 -5.29426 26886 ft 493 kts 81°
2026-04-28 22:04 40.60975 -5.24975 26888 ft 494 kts 81°
2026-04-28 22:04 40.61554 -5.20524 26889 ft 494 kts 81°
2026-04-28 22:04 40.62134 -5.16066 26893 ft 494 kts 81°
2026-04-28 22:04 40.62716 -5.11612 26894 ft 494 kts 81°
2026-04-28 22:05 40.63297 -5.07155 26898 ft 494 kts 81°
2026-04-28 22:05 40.63875 -5.02697 26898 ft 494 kts 81°
2026-04-28 22:05 40.64451 -4.98238 26898 ft 494 kts 81°
2026-04-28 22:05 40.65026 -4.93774 26893 ft 494 kts 82°
2026-04-28 22:06 40.65599 -4.89311 26888 ft 495 kts 82°
2026-04-28 22:06 40.66169 -4.84842 26888 ft 495 kts 82°
2026-04-28 22:06 40.66736 -4.80371 26889 ft 495 kts 82°
2026-04-28 22:06 40.67301 -4.75897 26890 ft 495 kts 82°
2026-04-28 22:07 40.67863 -4.71422 26883 ft 495 kts 82°
2026-04-28 22:07 40.68427 -4.66943 26884 ft 496 kts 82°
2026-04-28 22:07 40.68989 -4.62466 26884 ft 496 kts 82°
2026-04-28 22:07 40.69550 -4.57982 26885 ft 496 kts 82°
2026-04-28 22:08 40.70109 -4.53503 26882 ft 496 kts 82°
2026-04-28 22:08 40.70666 -4.49024 26885 ft 496 kts 82°
2026-04-28 22:08 40.71222 -4.44540 26886 ft 495 kts 82°
2026-04-28 22:08 40.71775 -4.40057 26887 ft 495 kts 82°
2026-04-28 22:09 40.72324 -4.35574 26887 ft 495 kts 82°
2026-04-28 22:09 40.72871 -4.31095 26887 ft 495 kts 82°
2026-04-28 22:09 40.73419 -4.26612 26890 ft 495 kts 82°
2026-04-28 22:09 40.73966 -4.22132 26890 ft 495 kts 82°
2026-04-28 22:10 40.74513 -4.17646 26890 ft 495 kts 82°
2026-04-28 22:10 40.75057 -4.13160 26890 ft 495 kts 82°
2026-04-28 22:10 40.75598 -4.08675 26891 ft 495 kts 82°
2026-04-28 22:10 40.76135 -4.04191 26891 ft 495 kts 82°
2026-04-28 22:11 40.76668 -3.99707 26895 ft 495 kts 82°
2026-04-28 22:11 40.77204 -3.95219 26894 ft 495 kts 82°
2026-04-28 22:11 40.77742 -3.90736 26893 ft 495 kts 82°
2026-04-28 22:11 40.78285 -3.86189 26894 ft 495 kts 82°
2026-04-28 22:12 40.78814 -3.81701 26888 ft 495 kts 82°
2026-04-28 22:12 40.79330 -3.77272 26888 ft 494 kts 83°
2026-04-28 22:12 40.79859 -3.72737 26892 ft 494 kts 83°
2026-04-28 22:12 40.80383 -3.68253 26895 ft 494 kts 83°
2026-04-28 22:13 40.80908 -3.63753 26902 ft 493 kts 83°
2026-04-28 22:13 40.81428 -3.59305 26902 ft 493 kts 83°
2026-04-28 22:13 40.81949 -3.54832 26902 ft 493 kts 83°
2026-04-28 22:13 40.82467 -3.50359 26902 ft 493 kts 83°
2026-04-28 22:14 40.82979 -3.45885 26905 ft 493 kts 83°
2026-04-28 22:14 40.83487 -3.41411 26892 ft 493 kts 83°
2026-04-28 22:14 40.83995 -3.36940 26896 ft 492 kts 83°
2026-04-28 22:14 40.84504 -3.32462 27117 ft 494 kts 83°
2026-04-28 22:15 40.85012 -3.27981 27476 ft 493 kts 83°
2026-04-28 22:15 40.85617 -3.23525 27819 ft 493 kts 77°
2026-04-28 22:15 40.86491 -3.19144 28165 ft 493 kts 76°
2026-04-28 22:15 40.87361 -3.14769 28520 ft 492 kts 76°
2026-04-28 22:16 40.88225 -3.10399 28859 ft 492 kts 76°
2026-04-28 22:16 40.89084 -3.06023 29192 ft 491 kts 77°
2026-04-28 22:16 40.89954 -3.01533 29502 ft 492 kts 77°
2026-04-28 22:16 40.90708 -2.97058 29766 ft 493 kts 80°
2026-04-28 22:17 40.91323 -2.92602 30068 ft 492 kts 82°
2026-04-28 22:17 40.91852 -2.88136 30350 ft 492 kts 83°
2026-04-28 22:17 40.91966 -2.87107 30416 ft 492 kts 83°
2026-04-28 22:17 40.92431 -2.82866 30690 ft 491 kts 83°
2026-04-28 22:18 40.92943 -2.78267 30991 ft 491 kts 83°
2026-04-28 22:18 40.93459 -2.73880 31290 ft 490 kts 82°
2026-04-28 22:18 40.94013 -2.69433 31592 ft 490 kts 82°
2026-04-28 22:18 40.94574 -2.64989 31894 ft 490 kts 82°
2026-04-28 22:19 40.95174 -2.60523 32154 ft 491 kts 77°
2026-04-28 22:19 40.96433 -2.56227 32418 ft 492 kts 60°
2026-04-28 22:19 40.98465 -2.52597 32685 ft 491 kts 44°
2026-04-28 22:19 41.01091 -2.49727 32826 ft 490 kts 31°
2026-04-28 22:20 41.04163 -2.47748 32316 ft 481 kts 15°
2026-04-28 22:20 41.06295 -2.47081 31973 ft 473 kts
2026-04-28 22:20 41.09556 -2.46959 31245 ft 466 kts 350°
2026-04-28 22:20 41.12729 -2.47873 30595 ft 458 kts 336°
2026-04-28 22:21 41.15571 -2.49674 29965 ft 449 kts 323°
2026-04-28 22:21 41.17983 -2.52226 29295 ft 440 kts 310°
2026-04-28 22:21 41.19872 -2.55358 28663 ft 431 kts 298°
2026-04-28 22:21 41.21162 -2.58890 28032 ft 422 kts 286°
2026-04-28 22:22 41.21837 -2.62694 27418 ft 415 kts 274°
2026-04-28 22:22 41.21894 -2.66489 26808 ft 409 kts 263°
2026-04-28 22:22 41.21560 -2.70306 25747 ft 416 kts 261°
2026-04-28 22:22 41.21189 -2.74175 24599 ft 428 kts 261°
2026-04-28 22:23 41.20793 -2.78119 23724 ft 432 kts 259°
2026-04-28 22:23 41.20012 -2.81940 22945 ft 428 kts 245°
2026-04-28 22:23 41.18562 -2.85375 21764 ft 417 kts 236°
2026-04-28 22:23 41.16966 -2.88564 20515 ft 412 kts 236°
2026-04-28 22:24 41.15338 -2.91726 19316 ft 407 kts 235°
2026-04-28 22:24 41.13736 -2.94788 18211 ft 401 kts 235°
2026-04-28 22:24 41.12151 -2.97806 16966 ft 396 kts 235°
2026-04-28 22:24 41.10575 -3.00827 15809 ft 389 kts 235°
2026-04-28 22:25 41.09056 -3.03753 15048 ft 379 kts 235°
2026-04-28 22:25 41.07597 -3.06577 14351 ft 365 kts 235°
2026-04-28 22:25 41.06204 -3.09282 13813 ft 349 kts 235°
2026-04-28 22:25 41.04858 -3.11902 13046 ft 340 kts 235°
2026-04-28 22:26 41.03543 -3.14460 12271 ft 332 kts 234°
2026-04-28 22:26 41.02256 -3.16961 11517 ft 326 kts 234°
2026-04-28 22:26 41.00962 -3.19463 10772 ft 327 kts 234°
2026-04-28 22:26 40.99676 -3.21941 10399 ft 322 kts 234°
2026-04-28 22:27 40.98422 -3.24354 10161 ft 314 kts 234°
2026-04-28 22:27 40.97182 -3.26735 9917 ft 306 kts 234°
2026-04-28 22:27 40.95991 -3.29028 9665 ft 299 kts 234°
2026-04-28 22:27 40.94810 -3.31303 9320 ft 294 kts 234°
2026-04-28 22:28 40.93654 -3.33523 8936 ft 292 kts 234°
2026-04-28 22:28 40.92503 -3.35727 8545 ft 289 kts 234°
2026-04-28 22:28 40.91364 -3.37900 8152 ft 287 kts 233°
2026-04-28 22:28 40.90162 -3.39991 7788 ft 284 kts 230°
2026-04-28 22:29 40.88908 -3.42013 7416 ft 282 kts 229°
2026-04-28 22:29 40.87653 -3.43978 7207 ft 273 kts 228°
2026-04-28 22:29 40.86442 -3.45866 7024 ft 264 kts 229°
2026-04-28 22:29 40.85279 -3.47689 6844 ft 255 kts 229°
2026-04-28 22:30 40.84143 -3.49482 6656 ft 247 kts 229°
2026-04-28 22:30 40.83048 -3.51222 6449 ft 239 kts 229°
2026-04-28 22:30 40.82001 -3.52889 6263 ft 233 kts 229°
2026-04-28 22:30 40.80966 -3.54493 6078 ft 225 kts 223°
2026-04-28 22:31 40.79703 -3.55623 5927 ft 216 kts 202°
2026-04-28 22:31 40.78269 -3.56068 5771 ft 209 kts 183°
2026-04-28 22:31 40.76822 -3.56067 5655 ft 201 kts 181°
2026-04-28 22:31 40.75461 -3.56058 5554 ft 190 kts 181°
2026-04-28 22:32 40.74178 -3.56051 5497 ft 180 kts 181°
2026-04-28 22:32 40.72940 -3.56044 5500 ft 176 kts 181°
2026-04-28 22:32 40.71716 -3.56038 5506 ft 175 kts 181°
2026-04-28 22:32 40.70493 -3.56032 5357 ft 177 kts 181°
2026-04-28 22:33 40.69269 -3.56025 5144 ft 176 kts 181°
2026-04-28 22:33 40.68047 -3.56019 4919 ft 175 kts 182°
2026-04-28 22:33 40.66827 -3.56012 4691 ft 175 kts 181°
2026-04-28 22:33 40.65612 -3.56005 4462 ft 175 kts 182°
2026-04-28 22:34 40.64396 -3.55999 4225 ft 175 kts 181°
2026-04-28 22:34 40.63182 -3.55992 3994 ft 174 kts 181°
2026-04-28 22:34 40.61968 -3.55985 3760 ft 174 kts 181°
2026-04-28 22:34 40.60759 -3.55979 3522 ft 173 kts 181°
2026-04-28 22:35 40.59536 -3.55972 3286 ft 172 kts 180°
2026-04-28 22:35 40.58348 -3.55966 3066 ft 168 kts 180°
2026-04-28 22:35 40.57226 -3.55959 2842 ft 162 kts 180°
2026-04-28 22:35 40.56494 -3.55955 2709 ft 154 kts 180°
2026-04-28 22:36 40.55127 -3.55946 2404 ft 142 kts 180°
2026-04-28 22:36 40.54155 -3.55935 2187 ft 136 kts 179°
2026-04-28 22:36 40.53515 -3.55941 2067 ft 130 kts 180°
2026-04-28 22:36 40.52349 -3.55946 1953 ft 130 kts 179°
2026-04-28 22:37 40.51665 -3.55928 1951 ft 71 kts 179°
2026-04-28 22:37 40.51255 -3.55918 1953 ft 54 kts 180°
2026-04-28 22:37 40.50908 -3.55924 1963 ft 46 kts 180°
2026-04-28 22:37 40.50605 -3.55925 1965 ft 41 kts 181°
2026-04-28 22:38 40.50434 -3.55978 1964 ft 35 kts 205°
2026-04-28 22:38 40.50240 -3.56123 1958 ft 28 kts 204°
2026-04-28 22:38 40.50077 -3.56145 1959 ft 19 kts 181°
2026-04-28 22:38 40.50029 -3.56220 1961 ft 6 kts 265°
2026-04-28 22:39 40.50028 -3.56304 1963 ft 14 kts 269°
2026-04-28 22:39 40.50027 -3.56452 1967 ft 18 kts 269°
2026-04-28 22:39 40.50024 -3.56635 1974 ft 22 kts 269°
2026-04-28 22:39 40.50024 -3.56851 1977 ft 27 kts 270°
2026-04-28 22:40 40.49967 -3.57009 1979 ft 18 kts 191°
2026-04-28 22:40 40.49821 -3.57007 1979 ft 24 kts 179°
2026-04-28 22:40 40.49635 -3.57004 1978 ft 29 kts 179°
2026-04-28 22:40 40.49419 -3.57001 1976 ft 31 kts 178°
2026-04-28 22:41 40.49358 -3.57002 1975 ft 0 kts 180°
2026-04-28 22:42 40.49345 -3.57002 1975 ft 5 kts 181°
2026-04-28 22:42 40.49298 -3.57036 1978 ft 11 kts 234°
2026-04-28 22:42 40.49243 -3.57118 1980 ft 14 kts 199°
2026-04-28 22:42 40.49128 -3.57117 1982 ft 20 kts 179°
2026-04-28 22:43 40.49049 -3.57029 1981 ft 17 kts 113°
2026-04-28 22:43 40.49040 -3.56891 1977 ft 14 kts 89°
2026-04-28 22:43 40.49040 -3.56852 1975 ft 0 kts 91°